Time,TemperatureF,DewpointF,PressureIn,WindDirection,WindDirectionDegrees,WindSpeedMPH,WindSpeedGustMPH,Humidity,HourlyPrecipIn,Conditions,Clouds,dailyrainin,SoftwareType,DateUTC
2013-07-03 00:00:00,85.4,57.6,29.69,West,263,0.0,0.0,39,0.00,CLR,SKC,0.00,WeatherDisplay:10.37,2013-07-03 06:00:00,
2013-07-03 00:02:00,85.2,58.8,29.69,West,263,1.1,1.1,41,0.00,CLR,SKC,0.00,WeatherDisplay:10.37,2013-07-03 06:02:00,
2013-07-03 00:06:00,84.5,58.2,29.69,NNW,329,2.3,2.3,41,0.00,CLR,SKC,0.00,WeatherDisplay:10.37,2013-07-03 06:06:00,
2013-07-03 00:11:00,83.7,58.2,29.69,West,280,1.0,2.0,42,0.00,CLR,SKC,0.00,WeatherDisplay:10.37,2013-07-03 06:11:00,
2013-07-03 00:15:00,83.1,57.0,29.69,WSW,243,2.3,2.3,41,0.00,CLR,SKC,0.00,WeatherDisplay:10.37,2013-07-03 06:15:00,
2013-07-03 00:16:00,83.1,57.0,29.69,WSW,241,1.0,2.0,41,0.00,CLR,SKC,0.00,WeatherDisplay:10.37,2013-07-03 06:16:00,
2013-07-03 00:17:00,83.2,57.1,29.69,SSW,213,2.3,2.3,41,0.00,CLR,SKC,0.00,WeatherDisplay:10.37,2013-07-03 06:17:00,
2013-07-03 00:22:00,83.4,57.9,29.69,SSW,205,0.0,0.1,42,0.00,CLR,SKC,0.00,WeatherDisplay:10.37,2013-07-03 06:22:00,
2013-07-03 00:26:00,82.9,59.4,29.69,NW,312,2.3,2.3,45,0.00,CLR,SKC,0.00,WeatherDisplay:10.37,2013-07-03 06:26:00,
2013-07-03 00:31:00,81.9,59.1,29.69,WSW,255,1.0,3.0,46,0.00,CLR,SKC,0.00,WeatherDisplay:10.37,2013-07-03 06:31:00,
2013-07-03 00:36:00,81.2,56.6,29.69,West,270,1.0,7.0,43,0.00,CLR,SKC,0.00,WeatherDisplay:10.37,2013-07-03 06:36:00,
2013-07-03 00:43:00,82.5,57.7,29.69,WSW,248,3.5,3.5,43,0.00,CLR,SKC,0.00,WeatherDisplay:10.37,2013-07-03 06:43:00,
2013-07-03 00:47:00,82.1,59.3,29.69,WSW,245,3.5,3.5,46,0.00,CLR,SKC,0.00,WeatherDisplay:10.37,2013-07-03 06:47:00,
2013-07-03 00:53:00,80.7,60.3,29.69,SSW,210,1.0,1.0,50,0.00,CLR,SKC,0.00,WeatherDisplay:10.37,2013-07-03 06:53:00,
2013-07-03 00:57:00,79.2,60.1,29.69,SW,234,2.3,2.3,52,0.00,CLR,SKC,0.00,WeatherDisplay:10.37,2013-07-03 06:57:00,
2013-07-03 01:04:00,78.5,60.5,29.69,SW,234,0.0,0.0,54,0.00,CLR,SKC,0.00,WeatherDisplay:10.37,2013-07-03 07:04:00,
2013-07-03 01:09:00,77.4,59.5,29.69,WSW,240,2.3,0.0,54,0.00,CLR,SKC,0.00,WeatherDisplay:10.37,2013-07-03 07:09:00,
2013-07-03 01:14:00,76.7,60.3,29.68,SSW,194,2.3,2.3,57,0.00,CLR,SKC,0.00,WeatherDisplay:10.37,2013-07-03 07:14:00,
2013-07-03 01:16:00,76.3,59.9,29.68,SSW,194,1.1,0.0,57,0.00,CLR,SKC,0.00,WeatherDisplay:10.37,2013-07-03 07:16:00,
2013-07-03 01:21:00,75.4,58.6,29.68,WSW,253,0.0,2.0,56,0.00,CLR,SKC,0.00,WeatherDisplay:10.37,2013-07-03 07:21:00,
2013-07-03 01:26:00,74.9,59.2,29.68,West,281,0.0,1.0,58,0.00,CLR,SKC,0.00,WeatherDisplay:10.37,2013-07-03 07:26:00,
2013-07-03 01:33:00,74.4,59.6,29.69,West,271,1.1,0.0,60,0.00,CLR,SKC,0.00,WeatherDisplay:10.37,2013-07-03 07:33:00,
2013-07-03 01:40:00,74.2,59.4,29.69,West,265,0.0,0.0,60,0.00,CLR,SKC,0.00,WeatherDisplay:10.37,2013-07-03 07:40:00,
2013-07-03 01:45:00,74.0,57.8,29.69,WSW,253,2.3,0.0,57,0.00,CLR,SKC,0.00,WeatherDisplay:10.37,2013-07-03 07:45:00,
2013-07-03 01:50:00,74.0,58.8,29.69,WSW,253,1.1,0.0,59,0.00,CLR,SKC,0.00,WeatherDisplay:10.37,2013-07-03 07:50:00,
2013-07-03 01:56:00,73.4,58.2,29.68,WSW,253,2.3,2.3,59,0.00,CLR,SKC,0.00,WeatherDisplay:10.37,2013-07-03 07:56:00,
2013-07-03 02:01:00,72.9,57.7,29.68,WSW,253,1.1,1.1,59,0.00,CLR,SKC,0.00,WeatherDisplay:10.37,2013-07-03 08:01:00,
2013-07-03 02:06:00,72.4,57.7,29.68,WSW,253,1.1,1.1,60,0.00,CLR,SKC,0.00,WeatherDisplay:10.37,2013-07-03 08:06:00,
2013-07-03 02:07:00,72.3,57.6,29.68,WSW,253,1.1,1.1,60,0.00,CLR,SKC,0.00,WeatherDisplay:10.37,2013-07-03 08:07:00,
2013-07-03 02:11:00,72.0,58.3,29.68,WSW,253,1.0,1.0,62,0.00,CLR,SKC,0.00,WeatherDisplay:10.37,2013-07-03 08:11:00,
2013-07-03 02:12:00,71.8,58.1,29.68,WSW,253,2.3,2.3,62,0.00,CLR,SKC,0.00,WeatherDisplay:10.37,2013-07-03 08:12:00,
2013-07-03 02:17:00,71.5,58.2,29.68,WSW,253,0.0,0.0,63,0.00,CLR,SKC,0.00,WeatherDisplay:10.37,2013-07-03 08:17:00,
2013-07-03 02:19:00,71.5,58.2,29.68,WSW,253,1.1,1.1,63,0.00,CLR,SKC,0.00,WeatherDisplay:10.37,2013-07-03 08:19:00,
2013-07-03 02:22:00,71.3,58.1,29.69,WSW,253,0.0,0.0,63,0.00,CLR,SKC,0.00,WeatherDisplay:10.37,2013-07-03 08:22:00,
2013-07-03 02:27:00,71.1,58.7,29.69,WSW,253,0.0,0.0,65,0.00,CLR,SKC,0.00,WeatherDisplay:10.37,2013-07-03 08:27:00,
2013-07-03 02:33:00,70.4,58.5,29.68,WSW,253,0.0,0.0,66,0.00,CLR,SKC,0.00,WeatherDisplay:10.37,2013-07-03 08:33:00,
2013-07-03 02:38:00,69.9,58.9,29.68,WSW,253,0.0,0.0,68,0.00,CLR,SKC,0.00,WeatherDisplay:10.37,2013-07-03 08:38:00,
2013-07-03 02:40:00,69.8,58.8,29.68,WSW,253,0.0,0.0,68,0.00,CLR,SKC,0.00,WeatherDisplay:10.37,2013-07-03 08:40:00,
2013-07-03 02:45:00,69.5,58.9,29.68,WSW,253,0.0,0.0,69,0.00,CLR,SKC,0.00,WeatherDisplay:10.37,2013-07-03 08:45:00,
2013-07-03 02:47:00,69.5,58.9,29.68,WSW,253,0.0,0.0,69,0.00,CLR,SKC,0.00,WeatherDisplay:10.37,2013-07-03 08:47:00,
2013-07-03 02:53:00,69.1,59.3,29.68,WSW,253,0.0,0.0,71,0.00,CLR,SKC,0.00,WeatherDisplay:10.37,2013-07-03 08:53:00,
2013-07-03 02:55:00,68.8,59.4,29.68,WSW,253,0.0,0.0,72,0.00,CLR,SKC,0.00,WeatherDisplay:10.37,2013-07-03 08:55:00,
2013-07-03 02:57:00,68.6,59.6,29.69,WSW,253,0.0,0.0,73,0.00,CLR,SKC,0.00,WeatherDisplay:10.37,2013-07-03 08:57:00,
2013-07-03 03:01:00,68.2,59.6,29.69,WSW,253,0.0,0.0,74,0.00,CLR,SKC,0.00,WeatherDisplay:10.37,2013-07-03 09:01:00,
2013-07-03 03:06:00,67.9,59.7,29.69,WSW,253,1.1,0.0,75,0.00,CLR,SKC,0.00,WeatherDisplay:10.37,2013-07-03 09:06:00,
2013-07-03 03:12:00,67.6,60.1,29.68,WSW,253,0.0,0.0,77,0.00,CLR,SKC,0.00,WeatherDisplay:10.37,2013-07-03 09:12:00,
2013-07-03 03:17:00,67.3,59.8,29.68,WSW,253,0.0,0.0,77,0.00,CLR,SKC,0.00,WeatherDisplay:10.37,2013-07-03 09:17:00,
2013-07-03 03:22:00,67.0,59.5,29.68,WSW,253,1.0,1.0,77,0.00,CLR,SKC,0.00,WeatherDisplay:10.37,2013-07-03 09:22:00,
2013-07-03 03:27:00,66.9,59.1,29.68,WSW,253,0.0,0.0,76,0.00,CLR,SKC,0.00,WeatherDisplay:10.37,2013-07-03 09:27:00,
2013-07-03 03:33:00,66.7,59.3,29.69,WSW,242,2.3,2.3,77,0.00,CLR,SKC,0.00,WeatherDisplay:10.37,2013-07-03 09:33:00,
2013-07-03 03:40:00,66.4,59.0,29.69,WSW,242,0.0,0.0,77,0.00,CLR,SKC,0.00,WeatherDisplay:10.37,2013-07-03 09:40:00,
2013-07-03 03:42:00,66.3,58.9,29.69,WSW,242,0.0,0.0,77,0.00,CLR,SKC,0.00,WeatherDisplay:10.37,2013-07-03 09:42:00,
2013-07-03 03:48:00,66.0,59.3,29.69,WSW,242,1.1,0.0,79,0.00,CLR,SKC,0.00,WeatherDisplay:10.37,2013-07-03 09:48:00,
2013-07-03 03:49:00,66.0,59.3,29.69,WSW,242,0.0,0.0,79,0.00,CLR,SKC,0.00,WeatherDisplay:10.37,2013-07-03 09:49:00,
2013-07-03 03:54:00,65.8,59.1,29.69,WSW,242,0.0,0.0,79,0.00,CLR,SKC,0.00,WeatherDisplay:10.37,2013-07-03 09:54:00,
2013-07-03 03:59:00,65.5,58.8,29.69,WSW,242,1.1,1.1,79,0.00,CLR,SKC,0.00,WeatherDisplay:10.37,2013-07-03 09:59:00,
2013-07-03 04:04:00,65.0,58.3,29.70,WSW,242,0.0,0.0,79,0.00,CLR,SKC,0.00,WeatherDisplay:10.37,2013-07-03 10:04:00,
2013-07-03 04:05:00,65.0,58.3,29.70,WSW,242,0.0,0.0,79,0.00,CLR,SKC,0.00,WeatherDisplay:10.37,2013-07-03 10:05:00,
2013-07-03 04:09:00,64.8,58.5,29.70,WSW,242,0.0,0.0,80,0.00,CLR,SKC,0.00,WeatherDisplay:10.37,2013-07-03 10:09:00,
2013-07-03 04:14:00,64.3,58.0,29.70,WSW,242,1.1,0.0,80,0.00,CLR,SKC,0.00,WeatherDisplay:10.37,2013-07-03 10:14:00,
2013-07-03 04:19:00,64.0,58.1,29.70,WSW,242,0.0,0.0,81,0.00,CLR,SKC,0.00,WeatherDisplay:10.37,2013-07-03 10:19:00,
2013-07-03 04:24:00,63.7,57.8,29.70,West,259,0.0,0.0,81,0.00,CLR,SKC,0.00,WeatherDisplay:10.37,2013-07-03 10:24:00,
2013-07-03 04:30:00,63.2,57.3,29.70,West,259,1.1,0.0,81,0.00,CLR,SKC,0.00,WeatherDisplay:10.37,2013-07-03 10:30:00,
2013-07-03 04:35:00,63.0,57.1,29.70,West,259,0.0,0.0,81,0.00,CLR,SKC,0.00,WeatherDisplay:10.37,2013-07-03 10:35:00,
2013-07-03 04:42:00,62.9,57.0,29.70,West,259,0.0,0.0,81,0.00,CLR,SKC,0.00,WeatherDisplay:10.37,2013-07-03 10:42:00,
2013-07-03 04:47:00,62.5,56.6,29.70,West,259,0.0,0.0,81,0.00,CLR,SKC,0.00,WeatherDisplay:10.37,2013-07-03 10:47:00,
2013-07-03 04:52:00,62.5,56.9,29.70,WNW,288,1.1,0.0,82,0.00,CLR,SKC,0.00,WeatherDisplay:10.37,2013-07-03 10:52:00,
2013-07-03 04:55:00,62.3,56.7,29.70,WNW,288,0.0,0.0,82,0.00,CLR,SKC,0.00,WeatherDisplay:10.37,2013-07-03 10:55:00,
2013-07-03 04:58:00,62.1,56.5,29.70,WNW,288,0.0,0.0,82,0.00,CLR,SKC,0.00,WeatherDisplay:10.37,2013-07-03 10:58:00,
2013-07-03 05:04:00,61.9,56.7,29.70,WNW,288,0.0,0.0,83,0.00,CLR,SKC,0.00,WeatherDisplay:10.37,2013-07-03 11:04:00,
2013-07-03 05:10:00,61.8,56.6,29.70,WNW,286,0.0,0.0,83,0.00,CLR,SKC,0.00,WeatherDisplay:10.37,2013-07-03 11:10:00,
2013-07-03 05:12:00,61.8,56.6,29.70,WNW,286,0.0,0.1,83,0.00,CLR,SKC,0.00,WeatherDisplay:10.37,2013-07-03 11:12:00,
2013-07-03 05:14:00,61.7,56.5,29.71,WNW,286,0.0,0.0,83,0.00,CLR,SKC,0.00,WeatherDisplay:10.37,2013-07-03 11:14:00,
2013-07-03 05:19:00,61.5,56.3,29.71,WNW,286,0.0,0.0,83,0.00,CLR,SKC,0.00,WeatherDisplay:10.37,2013-07-03 11:19:00,
2013-07-03 05:24:00,61.2,56.3,29.71,WNW,286,0.0,0.0,84,0.00,CLR,SKC,0.00,WeatherDisplay:10.37,2013-07-03 11:24:00,
2013-07-03 05:29:00,61.1,56.2,29.71,WNW,286,0.0,0.0,84,0.00,CLR,SKC,0.00,WeatherDisplay:10.37,2013-07-03 11:29:00,
2013-07-03 05:35:00,61.1,56.2,29.71,WNW,291,0.0,0.0,84,0.00,CLR,SKC,0.00,WeatherDisplay:10.37,2013-07-03 11:35:00,
2013-07-03 05:37:00,61.1,56.6,29.71,WNW,291,0.0,0.0,85,0.00,CLR,SKC,0.00,WeatherDisplay:10.37,2013-07-03 11:37:00,
2013-07-03 05:42:00,60.7,56.2,29.71,WNW,291,0.0,0.0,85,0.00,CLR,SKC,0.00,WeatherDisplay:10.37,2013-07-03 11:42:00,
2013-07-03 05:47:00,60.5,56.0,29.71,WNW,291,0.0,0.0,85,0.00,CLR,SKC,0.00,WeatherDisplay:10.37,2013-07-03 11:47:00,
2013-07-03 05:49:00,60.5,56.3,29.72,WNW,291,0.0,0.0,86,0.00,CLR,SKC,0.00,WeatherDisplay:10.37,2013-07-03 11:49:00,
2013-07-03 05:54:00,60.5,56.3,29.72,WNW,291,0.0,0.0,86,0.00,CLR,SKC,0.00,WeatherDisplay:10.37,2013-07-03 11:54:00,
2013-07-03 06:00:00,60.3,56.1,29.72,WNW,291,0.0,0.0,86,0.00,CLR,SKC,0.00,WeatherDisplay:10.37,2013-07-03 12:00:00,
2013-07-03 06:03:00,60.2,56.0,29.72,WNW,291,1.1,1.1,86,0.00,CLR,SKC,0.00,WeatherDisplay:10.37,2013-07-03 12:03:00,
2013-07-03 06:09:00,60.1,56.2,29.72,WNW,286,1.1,1.1,87,0.00,CLR,SKC,0.00,WeatherDisplay:10.37,2013-07-03 12:09:00,
2013-07-03 06:14:00,60.2,56.3,29.72,WNW,286,0.0,0.0,87,0.00,CLR,SKC,0.00,WeatherDisplay:10.37,2013-07-03 12:14:00,
2013-07-03 06:19:00,60.3,56.7,29.72,WNW,286,0.0,0.0,88,0.00,CLR,SKC,0.00,WeatherDisplay:10.37,2013-07-03 12:19:00,
2013-07-03 06:22:00,60.3,56.7,29.72,WNW,283,1.1,0.0,88,0.00,CLR,SKC,0.00,WeatherDisplay:10.37,2013-07-03 12:22:00,
2013-07-03 06:26:00,60.3,56.7,29.72,WNW,283,0.0,2.0,88,0.00,CLR,SKC,0.00,WeatherDisplay:10.37,2013-07-03 12:26:00,
2013-07-03 06:32:00,60.4,56.8,29.72,WNW,282,0.0,0.0,88,0.00,CLR,SKC,0.00,WeatherDisplay:10.37,2013-07-03 12:32:00,
2013-07-03 06:37:00,60.7,57.1,29.72,WNW,282,0.0,0.0,88,0.00,CLR,SKC,0.00,WeatherDisplay:10.37,2013-07-03 12:37:00,
2013-07-03 06:42:00,60.8,56.9,29.72,WNW,282,0.0,0.0,87,0.00,CLR,SKC,0.00,WeatherDisplay:10.37,2013-07-03 12:42:00,
2013-07-03 06:47:00,61.4,57.8,29.72,NNE,30,1.1,1.1,88,0.00,CLR,SKC,0.00,WeatherDisplay:10.37,2013-07-03 12:47:00,
2013-07-03 06:52:00,61.7,57.5,29.72,West,272,1.1,0.0,86,0.00,CLR,SKC,0.00,WeatherDisplay:10.37,2013-07-03 12:52:00,
2013-07-03 06:57:00,61.9,57.7,29.72,West,272,1.1,0.0,86,0.00,CLR,SKC,0.00,WeatherDisplay:10.37,2013-07-03 12:57:00,
2013-07-03 07:02:00,62.1,57.5,29.72,SW,232,1.1,1.1,85,0.00,CLR,SKC,0.00,WeatherDisplay:10.37,2013-07-03 13:02:00,
2013-07-03 07:07:00,62.2,58.0,29.72,SW,232,0.0,0.0,86,0.00,CLR,SKC,0.00,WeatherDisplay:10.37,2013-07-03 13:07:00,
2013-07-03 07:12:00,62.4,58.2,29.72,SW,225,1.1,1.1,86,0.00,CLR,SKC,0.00,WeatherDisplay:10.37,2013-07-03 13:12:00,
2013-07-03 07:18:00,62.5,58.3,29.72,SW,227,0.0,0.0,86,0.00,CLR,SKC,0.00,WeatherDisplay:10.37,2013-07-03 13:18:00,
2013-07-03 07:24:00,62.9,58.3,29.73,SW,227,0.0,0.0,85,0.00,CLR,SKC,0.00,WeatherDisplay:10.37,2013-07-03 13:24:00,
2013-07-03 07:27:00,63.0,58.7,29.72,SW,228,0.0,0.0,86,0.00,CLR,SKC,0.00,WeatherDisplay:10.37,2013-07-03 13:27:00,
2013-07-03 07:29:00,63.2,58.9,29.72,SW,228,0.0,0.0,86,0.00,CLR,SKC,0.00,WeatherDisplay:10.37,2013-07-03 13:29:00,
2013-07-03 07:35:00,63.8,59.2,29.73,West,262,0.0,0.0,85,0.00,CLR,SKC,0.00,WeatherDisplay:10.37,2013-07-03 13:35:00,
2013-07-03 07:40:00,64.3,59.7,29.72,SW,236,0.0,0.0,85,0.00,CLR,SKC,0.00,WeatherDisplay:10.37,2013-07-03 13:40:00,
2013-07-03 07:44:00,64.7,59.8,29.73,SW,236,1.0,0.0,84,0.00,CLR,SKC,0.00,WeatherDisplay:10.37,2013-07-03 13:44:00,
2013-07-03 07:49:00,65.2,59.9,29.72,SW,224,0.0,0.1,83,0.00,CLR,SKC,0.00,WeatherDisplay:10.37,2013-07-03 13:49:00,
2013-07-03 07:54:00,65.6,60.3,29.72,South,173,1.1,1.1,83,0.00,CLR,SKC,0.00,WeatherDisplay:10.37,2013-07-03 13:54:00,
2013-07-03 07:59:00,66.1,60.4,29.72,SW,216,2.3,2.3,82,0.00,CLR,SKC,0.00,WeatherDisplay:10.37,2013-07-03 13:59:00,
2013-07-03 08:04:00,66.5,60.5,29.73,WSW,258,2.3,2.3,81,0.00,CLR,SKC,0.00,WeatherDisplay:10.37,2013-07-03 14:04:00,
2013-07-03 08:10:00,67.0,60.3,29.72,WSW,256,1.1,1.1,79,0.00,CLR,SKC,0.00,WeatherDisplay:10.37,2013-07-03 14:10:00,
2013-07-03 08:11:00,67.1,61.1,29.72,WSW,252,0.0,1.0,81,0.00,CLR,SKC,0.00,WeatherDisplay:10.37,2013-07-03 14:11:00,
2013-07-03 08:17:00,68.0,61.2,29.72,WNW,286,2.3,2.3,79,0.00,CLR,SKC,0.00,WeatherDisplay:10.37,2013-07-03 14:17:00,
2013-07-03 08:19:00,68.1,60.2,29.72,ENE,59,1.1,1.1,76,0.00,CLR,SKC,0.00,WeatherDisplay:10.37,2013-07-03 14:19:00,
2013-07-03 08:26:00,68.8,60.9,29.71,North,351,0.0,2.0,76,0.00,CLR,SKC,0.00,WeatherDisplay:10.37,2013-07-03 14:26:00,
2013-07-03 08:32:00,69.5,61.3,29.71,NNE,14,0.0,3.0,75,0.00,CLR,SKC,0.00,WeatherDisplay:10.37,2013-07-03 14:32:00,
2013-07-03 08:33:00,69.8,61.1,29.71,NE,36,2.3,2.3,74,0.00,CLR,SKC,0.00,WeatherDisplay:10.37,2013-07-03 14:33:00,
2013-07-03 08:38:00,70.5,61.4,29.70,NE,39,2.3,2.3,73,0.00,CLR,SKC,0.00,WeatherDisplay:10.37,2013-07-03 14:38:00,
2013-07-03 08:44:00,71.0,62.3,29.71,SW,232,0.0,0.0,74,0.00,CLR,SKC,0.00,WeatherDisplay:10.37,2013-07-03 14:44:00,
2013-07-03 08:48:00,71.0,61.1,29.71,NNW,336,1.1,0.0,71,0.00,CLR,SKC,0.00,WeatherDisplay:10.37,2013-07-03 14:48:00,
2013-07-03 08:53:00,71.3,61.8,29.71,North,9,2.3,2.3,72,0.00,CLR,SKC,0.00,WeatherDisplay:10.37,2013-07-03 14:53:00,
2013-07-03 08:56:00,71.6,62.5,29.72,SSW,202,3.5,3.5,73,0.00,CLR,SKC,0.00,WeatherDisplay:10.37,2013-07-03 14:56:00,
2013-07-03 08:58:00,71.7,61.4,29.72,SSW,203,1.0,1.0,70,0.00,CLR,SKC,0.00,WeatherDisplay:10.37,2013-07-03 14:58:00,
2013-07-03 09:03:00,72.1,60.5,29.72,North,5,3.5,3.5,67,0.00,CLR,SKC,0.00,WeatherDisplay:10.37,2013-07-03 15:03:00,
2013-07-03 09:07:00,72.4,61.7,29.72,NE,54,1.1,1.1,69,0.00,CLR,SKC,0.00,WeatherDisplay:10.37,2013-07-03 15:07:00,
2013-07-03 09:12:00,72.8,61.6,29.71,NE,54,1.1,1.1,68,0.00,CLR,SKC,0.00,WeatherDisplay:10.37,2013-07-03 15:12:00,
2013-07-03 09:17:00,73.3,62.5,29.71,NE,54,1.1,1.1,69,0.00,CLR,SKC,0.00,WeatherDisplay:10.37,2013-07-03 15:17:00,
2013-07-03 09:22:00,73.6,62.4,29.71,South,175,1.1,1.4,68,0.00,CLR,SKC,0.00,WeatherDisplay:10.37,2013-07-03 15:22:00,
2013-07-03 09:23:00,73.6,62.4,29.71,South,175,3.5,3.5,68,0.00,CLR,SKC,0.00,WeatherDisplay:10.37,2013-07-03 15:23:00,
2013-07-03 09:28:00,74.1,62.9,29.71,ESE,119,3.5,0.0,68,0.00,CLR,SKC,0.00,WeatherDisplay:10.37,2013-07-03 15:28:00,
2013-07-03 09:32:00,74.4,62.3,29.71,ESE,113,1.0,4.0,66,0.00,CLR,SKC,0.00,WeatherDisplay:10.37,2013-07-03 15:32:00,
2013-07-03 09:38:00,75.6,62.1,29.71,NNE,17,3.5,3.5,63,0.00,CLR,SKC,0.00,WeatherDisplay:10.37,2013-07-03 15:38:00,
2013-07-03 09:43:00,76.2,62.7,29.70,NE,47,3.0,3.0,63,0.00,CLR,SKC,0.00,WeatherDisplay:10.37,2013-07-03 15:43:00,
2013-07-03 09:48:00,76.9,62.0,29.70,NNE,22,1.1,1.1,60,0.00,CLR,SKC,0.00,WeatherDisplay:10.37,2013-07-03 15:48:00,
2013-07-03 09:53:00,77.3,61.9,29.70,ENE,72,3.5,3.5,59,0.00,CLR,SKC,0.00,WeatherDisplay:10.37,2013-07-03 15:53:00,
2013-07-03 09:55:00,77.5,63.5,29.70,SW,234,2.3,2.3,62,0.00,CLR,SKC,0.00,WeatherDisplay:10.37,2013-07-03 15:55:00,
2013-07-03 09:57:00,77.6,63.1,29.71,South,185,2.3,2.3,61,0.00,CLR,SKC,0.00,WeatherDisplay:10.37,2013-07-03 15:57:00,
2013-07-03 10:03:00,78.0,63.0,29.71,ENE,71,0.0,0.0,60,0.00,CLR,SKC,0.00,WeatherDisplay:10.37,2013-07-03 16:03:00,
2013-07-03 10:08:00,78.3,64.2,29.71,ENE,61,0.0,0.0,62,0.00,CLR,SKC,0.00,WeatherDisplay:10.37,2013-07-03 16:08:00,
2013-07-03 10:15:00,78.9,60.8,29.71,ENE,67,3.5,3.5,54,0.00,CLR,SKC,0.00,WeatherDisplay:10.37,2013-07-03 16:15:00,
2013-07-03 10:21:00,79.4,62.8,29.71,WNW,295,2.3,2.3,57,0.00,CLR,SKC,0.00,WeatherDisplay:10.37,2013-07-03 16:21:00,
2013-07-03 10:27:00,79.7,63.1,29.71,SW,228,2.3,2.3,57,0.00,CLR,SKC,0.00,WeatherDisplay:10.37,2013-07-03 16:27:00,
2013-07-03 10:32:00,80.1,61.4,29.70,SW,215,3.5,3.5,53,0.00,CLR,SKC,0.00,WeatherDisplay:10.37,2013-07-03 16:32:00,
2013-07-03 10:37:00,81.0,52.3,29.70,SSE,154,3.5,3.5,37,0.00,CLR,SKC,0.00,WeatherDisplay:10.37,2013-07-03 16:37:00,
2013-07-03 10:42:00,82.0,52.4,29.70,NW,309,4.6,4.6,36,0.00,CLR,SKC,0.00,WeatherDisplay:10.37,2013-07-03 16:42:00,
2013-07-03 10:48:00,82.9,52.4,29.70,WSW,244,4.0,4.0,35,0.00,CLR,SKC,0.00,WeatherDisplay:10.37,2013-07-03 16:48:00,
2013-07-03 10:53:00,82.9,51.6,29.70,SW,223,9.2,9.2,34,0.00,CLR,SKC,0.00,WeatherDisplay:10.37,2013-07-03 16:53:00,
2013-07-03 10:59:00,83.7,53.9,29.70,WNW,290,2.3,2.3,36,0.00,CLR,SKC,0.00,WeatherDisplay:10.37,2013-07-03 16:59:00,
2013-07-03 11:06:00,84.1,51.9,29.70,SSW,192,4.6,4.6,33,0.00,CLR,SKC,0.00,WeatherDisplay:10.37,2013-07-03 17:06:00,
2013-07-03 11:11:00,84.3,52.1,29.70,WSW,250,3.5,3.5,33,0.00,CLR,SKC,0.00,WeatherDisplay:10.37,2013-07-03 17:11:00,
2013-07-03 11:16:00,84.3,52.9,29.70,WNW,289,1.1,1.1,34,0.00,CLR,SKC,0.00,WeatherDisplay:10.37,2013-07-03 17:16:00,
2013-07-03 11:21:00,84.4,51.3,29.70,WSW,250,1.0,6.0,32,0.00,CLR,SKC,0.00,WeatherDisplay:10.37,2013-07-03 17:21:00,
2013-07-03 11:26:00,84.2,51.1,29.70,WSW,241,1.0,5.0,32,0.00,CLR,SKC,0.00,WeatherDisplay:10.37,2013-07-03 17:26:00,
2013-07-03 11:32:00,84.5,53.8,29.70,West,265,3.5,3.5,35,0.00,CLR,SKC,0.00,WeatherDisplay:10.37,2013-07-03 17:32:00,
2013-07-03 11:37:00,84.8,50.8,29.70,WSW,239,6.9,6.9,31,0.00,CLR,SKC,0.00,WeatherDisplay:10.37,2013-07-03 17:37:00,
2013-07-03 11:42:00,84.8,50.8,29.70,SW,227,4.6,4.6,31,0.00,CLR,SKC,0.00,WeatherDisplay:10.37,2013-07-03 17:42:00,
2013-07-03 11:48:00,84.9,51.7,29.70,SW,221,2.3,2.3,32,0.00,CLR,SKC,0.00,WeatherDisplay:10.37,2013-07-03 17:48:00,
2013-07-03 11:56:00,86.0,49.1,29.70,WNW,295,3.5,3.5,28,0.00,CLR,SKC,0.00,WeatherDisplay:10.37,2013-07-03 17:56:00,
2013-07-03 12:01:00,86.6,50.6,29.69,SSW,198,2.3,2.3,29,0.00,CLR,SKC,0.00,WeatherDisplay:10.37,2013-07-03 18:01:00,
2013-07-03 12:06:00,86.9,50.8,29.69,WSW,240,1.0,5.0,29,0.00,CLR,SKC,0.00,WeatherDisplay:10.37,2013-07-03 18:06:00,
2013-07-03 12:12:00,87.6,54.1,29.69,SSW,210,2.3,2.3,32,0.00,CLR,SKC,0.00,WeatherDisplay:10.37,2013-07-03 18:12:00,
2013-07-03 12:17:00,87.2,50.1,29.69,SSW,209,3.5,3.5,28,0.00,CLR,SKC,0.00,WeatherDisplay:10.37,2013-07-03 18:17:00,
2013-07-03 12:22:00,86.8,48.8,29.69,SW,219,3.5,3.5,27,0.00,CLR,SKC,0.00,WeatherDisplay:10.37,2013-07-03 18:22:00,
2013-07-03 12:28:00,86.5,50.5,29.68,East,90,4.6,4.6,29,0.00,CLR,SKC,0.00,WeatherDisplay:10.37,2013-07-03 18:28:00,
2013-07-03 12:32:00,86.5,50.5,29.68,SSW,213,5.8,5.8,29,0.00,CLR,SKC,0.00,WeatherDisplay:10.37,2013-07-03 18:32:00,
2013-07-03 12:38:00,86.6,51.5,29.68,WSW,240,3.5,3.5,30,0.00,CLR,SKC,0.00,WeatherDisplay:10.37,2013-07-03 18:38:00,
2013-07-03 12:43:00,86.8,48.8,29.68,SSW,208,3.5,3.5,27,0.00,CLR,SKC,0.00,WeatherDisplay:10.37,2013-07-03 18:43:00,
2013-07-03 12:48:00,86.9,51.7,29.68,West,263,3.5,3.5,30,0.00,CLR,SKC,0.00,WeatherDisplay:10.37,2013-07-03 18:48:00,
2013-07-03 12:53:00,87.5,50.4,29.67,NW,310,3.5,3.5,28,0.00,CLR,SKC,0.00,WeatherDisplay:10.37,2013-07-03 18:53:00,
2013-07-03 12:58:00,88.1,51.8,29.68,WSW,242,3.5,3.5,29,0.00,CLR,SKC,0.00,WeatherDisplay:10.37,2013-07-03 18:58:00,
2013-07-03 13:03:00,87.9,50.7,29.67,SW,216,3.5,3.5,28,0.00,CLR,SKC,0.00,WeatherDisplay:10.37,2013-07-03 19:03:00,
2013-07-03 13:08:00,87.8,53.4,29.67,WSW,258,4.6,4.6,31,0.00,CLR,SKC,0.00,WeatherDisplay:10.37,2013-07-03 19:08:00,
2013-07-03 13:13:00,87.9,52.6,29.67,SE,146,2.3,2.3,30,0.00,CLR,SKC,0.00,WeatherDisplay:10.37,2013-07-03 19:13:00,
2013-07-03 13:19:00,88.1,54.5,29.67,South,170,3.5,3.5,32,0.00,CLR,SKC,0.00,WeatherDisplay:10.37,2013-07-03 19:19:00,
2013-07-03 13:24:00,87.7,52.4,29.67,South,171,0.0,0.0,30,0.00,CLR,SKC,0.00,WeatherDisplay:10.37,2013-07-03 19:24:00,
2013-07-03 13:29:00,87.3,56.3,29.67,South,171,1.1,1.1,35,0.00,CLR,SKC,0.00,WeatherDisplay:10.37,2013-07-03 19:29:00,
2013-07-03 13:34:00,87.4,53.9,29.67,South,188,1.1,1.1,32,0.00,CLR,SKC,0.00,WeatherDisplay:10.37,2013-07-03 19:34:00,
2013-07-03 13:39:00,88.0,58.5,29.67,SSW,194,0.0,0.0,37,0.00,CLR,SKC,0.00,WeatherDisplay:10.37,2013-07-03 19:39:00,
2013-07-03 13:45:00,88.0,53.6,29.67,SSW,196,1.1,1.1,31,0.00,CLR,SKC,0.00,WeatherDisplay:10.37,2013-07-03 19:45:00,
2013-07-03 13:50:00,88.3,57.2,29.67,SW,236,1.1,1.1,35,0.00,CLR,SKC,0.00,WeatherDisplay:10.37,2013-07-03 19:50:00,
2013-07-03 13:55:00,89.2,56.3,29.67,SSW,198,2.3,2.3,33,0.00,CLR,SKC,0.00,WeatherDisplay:10.37,2013-07-03 19:55:00,
2013-07-03 14:00:00,89.7,55.9,29.66,SSW,208,3.5,3.5,32,0.00,CLR,SKC,0.00,WeatherDisplay:10.37,2013-07-03 20:00:00,
2013-07-03 14:06:00,90.0,55.3,29.66,SSW,209,2.3,2.3,31,0.00,CLR,SKC,0.00,WeatherDisplay:10.37,2013-07-03 20:06:00,
2013-07-03 14:12:00,89.7,55.1,29.66,SSW,199,1.0,3.0,31,0.00,CLR,SKC,0.00,WeatherDisplay:10.37,2013-07-03 20:12:00,
2013-07-03 14:17:00,89.1,55.4,29.66,South,189,0.0,2.0,32,0.00,CLR,SKC,0.00,WeatherDisplay:10.37,2013-07-03 20:17:00,
2013-07-03 14:22:00,88.4,56.5,29.65,South,182,0.0,0.0,34,0.00,CLR,SKC,0.00,WeatherDisplay:10.37,2013-07-03 20:22:00,
2013-07-03 14:28:00,88.3,56.4,29.65,SW,216,0.0,0.0,34,0.00,CLR,SKC,0.00,WeatherDisplay:10.37,2013-07-03 20:28:00,
2013-07-03 14:33:00,88.4,54.8,29.65,South,191,1.1,1.1,32,0.00,CLR,SKC,0.00,WeatherDisplay:10.37,2013-07-03 20:33:00,
2013-07-03 14:38:00,88.2,55.5,29.65,SW,229,3.5,3.5,33,0.00,CLR,SKC,0.00,WeatherDisplay:10.37,2013-07-03 20:38:00,
2013-07-03 14:43:00,87.7,52.4,29.65,SSE,164,3.5,3.5,30,0.00,CLR,SKC,0.00,WeatherDisplay:10.37,2013-07-03 20:43:00,
2013-07-03 14:48:00,87.3,54.7,29.65,SW,229,1.1,1.1,33,0.00,CLR,SKC,0.00,WeatherDisplay:10.37,2013-07-03 20:48:00,
2013-07-03 14:53:00,87.3,53.0,29.65,SSW,209,2.3,2.3,31,0.00,CLR,SKC,0.00,WeatherDisplay:10.37,2013-07-03 20:53:00,
2013-07-03 14:58:00,87.2,55.4,29.65,SW,233,3.5,3.5,34,0.00,CLR,SKC,0.00,WeatherDisplay:10.37,2013-07-03 20:58:00,
2013-07-03 15:03:00,87.0,56.0,29.64,SW,233,1.1,0.0,35,0.00,CLR,SKC,0.00,WeatherDisplay:10.37,2013-07-03 21:03:00,
2013-07-03 15:09:00,87.2,59.2,29.64,SW,230,1.1,0.0,39,0.00,CLR,SKC,0.00,WeatherDisplay:10.37,2013-07-03 21:09:00,
2013-07-03 15:14:00,87.7,58.9,29.64,SSW,201,1.1,1.1,38,0.00,CLR,SKC,0.00,WeatherDisplay:10.37,2013-07-03 21:14:00,
2013-07-03 15:19:00,87.5,60.2,29.64,SSW,201,0.0,0.0,40,0.00,CLR,SKC,0.00,WeatherDisplay:10.37,2013-07-03 21:19:00,
2013-07-03 15:25:00,87.0,58.3,29.64,SSW,201,1.1,0.0,38,0.00,CLR,SKC,0.00,WeatherDisplay:10.37,2013-07-03 21:25:00,
2013-07-03 15:31:00,87.4,60.8,29.63,SE,143,2.3,2.3,41,0.00,CLR,SKC,0.00,WeatherDisplay:10.37,2013-07-03 21:31:00,
2013-07-03 15:36:00,87.2,57.0,29.63,SE,144,0.0,0.0,36,0.00,CLR,SKC,0.00,WeatherDisplay:10.37,2013-07-03 21:36:00,
2013-07-03 15:41:00,87.0,56.8,29.63,SE,144,0.0,0.0,36,0.00,CLR,SKC,0.00,WeatherDisplay:10.37,2013-07-03 21:41:00,
2013-07-03 15:46:00,87.0,62.5,29.62,SE,144,1.1,0.0,44,0.00,CLR,SKC,0.00,WeatherDisplay:10.37,2013-07-03 21:46:00,
2013-07-03 15:51:00,86.2,59.0,29.62,SE,144,1.1,1.1,40,0.00,CLR,SKC,0.00,WeatherDisplay:10.37,2013-07-03 21:51:00,
2013-07-03 15:56:00,85.9,55.8,29.62,SSW,200,1.0,4.0,36,0.00,CLR,SKC,0.00,WeatherDisplay:10.37,2013-07-03 21:56:00,
2013-07-03 16:01:00,85.9,52.6,29.62,SW,216,1.0,5.0,32,0.00,CLR,SKC,0.00,WeatherDisplay:10.37,2013-07-03 22:01:00,
2013-07-03 16:06:00,86.1,54.4,29.62,SSW,213,0.0,4.0,34,0.00,CLR,SKC,0.00,WeatherDisplay:10.37,2013-07-03 22:06:00,
2013-07-03 16:13:00,86.3,50.3,29.62,WSW,241,3.5,3.5,29,0.00,CLR,SKC,0.00,WeatherDisplay:10.37,2013-07-03 22:13:00,
2013-07-03 16:18:00,86.5,49.5,29.62,SW,228,2.0,2.0,28,0.00,CLR,SKC,0.00,WeatherDisplay:10.37,2013-07-03 22:18:00,
2013-07-03 16:23:00,86.9,50.8,29.61,WSW,241,3.5,3.5,29,0.00,CLR,SKC,0.00,WeatherDisplay:10.37,2013-07-03 22:23:00,
2013-07-03 16:28:00,87.9,54.4,29.61,SW,214,1.1,1.1,32,0.00,CLR,SKC,0.00,WeatherDisplay:10.37,2013-07-03 22:28:00,
2013-07-03 16:33:00,89.6,52.2,29.61,ENE,59,1.1,1.1,28,0.00,CLR,SKC,0.00,WeatherDisplay:10.37,2013-07-03 22:33:00,
2013-07-03 16:38:00,90.8,54.2,29.61,ENE,64,2.3,2.3,29,0.00,CLR,SKC,0.00,WeatherDisplay:10.37,2013-07-03 22:38:00,
2013-07-03 16:43:00,91.2,51.5,29.61,West,264,3.5,3.5,26,0.00,CLR,SKC,0.00,WeatherDisplay:10.37,2013-07-03 22:43:00,
2013-07-03 16:48:00,91.3,48.3,29.61,SW,233,2.3,2.3,23,0.00,CLR,SKC,0.00,WeatherDisplay:10.37,2013-07-03 22:48:00,
2013-07-03 16:54:00,91.3,47.1,29.61,SSW,203,6.9,6.9,22,0.00,CLR,SKC,0.00,WeatherDisplay:10.37,2013-07-03 22:54:00,
2013-07-03 17:00:00,91.0,51.4,29.61,SW,227,3.0,3.0,26,0.00,CLR,SKC,0.00,WeatherDisplay:10.37,2013-07-03 23:00:00,
2013-07-03 17:06:00,90.8,47.9,29.60,SSW,207,3.5,3.5,23,0.00,CLR,SKC,0.00,WeatherDisplay:10.37,2013-07-03 23:06:00,
2013-07-03 17:11:00,90.7,47.8,29.60,West,271,2.3,2.3,23,0.00,CLR,SKC,0.00,WeatherDisplay:10.37,2013-07-03 23:11:00,
2013-07-03 17:16:00,90.7,47.8,29.60,SW,214,1.0,5.0,23,0.00,CLR,SKC,0.00,WeatherDisplay:10.37,2013-07-03 23:16:00,
2013-07-03 17:21:00,90.7,51.1,29.60,SW,219,3.5,3.5,26,0.00,CLR,SKC,0.00,WeatherDisplay:10.37,2013-07-03 23:21:00,
2013-07-03 17:26:00,90.4,50.8,29.60,SW,229,2.3,2.3,26,0.00,CLR,SKC,0.00,WeatherDisplay:10.37,2013-07-03 23:26:00,
2013-07-03 17:31:00,90.2,47.4,29.60,West,263,8.1,8.1,23,0.00,CLR,SKC,0.00,WeatherDisplay:10.37,2013-07-03 23:31:00,
2013-07-03 17:36:00,90.0,48.4,29.60,SW,231,4.6,4.6,24,0.00,CLR,SKC,0.00,WeatherDisplay:10.37,2013-07-03 23:36:00,
2013-07-03 17:43:00,89.9,49.4,29.60,SW,227,2.3,2.3,25,0.00,CLR,SKC,0.00,WeatherDisplay:10.37,2013-07-03 23:43:00,
2013-07-03 17:48:00,89.8,49.3,29.60,West,265,3.5,3.5,25,0.00,CLR,SKC,0.00,WeatherDisplay:10.37,2013-07-03 23:48:00,
2013-07-03 17:53:00,89.8,49.3,29.59,South,187,4.6,4.6,25,0.00,CLR,SKC,0.00,WeatherDisplay:10.37,2013-07-03 23:53:00,
2013-07-03 17:58:00,89.7,48.1,29.60,SSW,213,3.5,3.5,24,0.00,CLR,SKC,0.00,WeatherDisplay:10.37,2013-07-03 23:58:00,
2013-07-03 18:03:00,89.6,50.2,29.59,SW,229,2.3,2.3,26,0.00,CLR,SKC,0.00,WeatherDisplay:10.37,2013-07-04 00:03:00,
2013-07-03 18:10:00,89.5,47.9,29.59,WSW,254,5.0,5.0,24,0.00,CLR,SKC,0.00,WeatherDisplay:10.37,2013-07-04 00:10:00,
2013-07-03 18:15:00,89.4,48.9,29.59,SW,228,3.5,3.5,25,0.00,CLR,SKC,0.00,WeatherDisplay:10.37,2013-07-04 00:15:00,
2013-07-03 18:20:00,89.5,51.1,29.59,WSW,248,3.0,3.0,27,0.00,CLR,SKC,0.00,WeatherDisplay:10.37,2013-07-04 00:20:00,
2013-07-03 18:25:00,89.5,51.1,29.59,WSW,242,2.3,2.3,27,0.00,CLR,SKC,0.00,WeatherDisplay:10.37,2013-07-04 00:25:00,
2013-07-03 18:30:00,89.3,52.9,29.59,WSW,249,2.0,2.0,29,0.00,CLR,SKC,0.00,WeatherDisplay:10.37,2013-07-04 00:30:00,
2013-07-03 18:35:00,89.0,48.6,29.58,SW,236,3.5,3.5,25,0.00,CLR,SKC,0.00,WeatherDisplay:10.37,2013-07-04 00:35:00,
2013-07-03 18:40:00,88.8,48.4,29.59,South,188,3.5,3.5,25,0.00,CLR,SKC,0.00,WeatherDisplay:10.37,2013-07-04 00:40:00,
2013-07-03 18:45:00,88.6,46.1,29.59,SW,219,3.5,3.5,23,0.00,CLR,SKC,0.00,WeatherDisplay:10.37,2013-07-04 00:45:00,
2013-07-03 18:52:00,88.2,46.8,29.59,SW,229,2.0,5.0,24,0.00,CLR,SKC,0.00,WeatherDisplay:10.37,2013-07-04 00:52:00,
2013-07-03 18:57:00,87.9,48.7,29.59,SW,233,2.0,4.0,26,0.00,CLR,SKC,0.00,WeatherDisplay:10.37,2013-07-04 00:57:00,
2013-07-03 19:02:00,87.8,47.6,29.59,SW,230,2.0,6.0,25,0.00,CLR,SKC,0.00,WeatherDisplay:10.37,2013-07-04 01:02:00,
2013-07-03 19:07:00,87.5,49.4,29.59,SW,230,3.5,3.5,27,0.00,CLR,SKC,0.00,WeatherDisplay:10.37,2013-07-04 01:07:00,
2013-07-03 19:12:00,87.2,49.1,29.59,SSW,207,3.5,3.5,27,0.00,CLR,SKC,0.00,WeatherDisplay:10.37,2013-07-04 01:12:00,
2013-07-03 19:17:00,87.0,49.0,29.58,SW,231,3.5,3.5,27,0.00,CLR,SKC,0.00,WeatherDisplay:10.37,2013-07-04 01:17:00,
2013-07-03 19:22:00,86.8,50.7,29.59,West,267,2.3,2.3,29,0.00,CLR,SKC,0.00,WeatherDisplay:10.37,2013-07-04 01:22:00,
2013-07-03 19:27:00,86.5,46.5,29.59,WNW,297,3.5,3.5,25,0.00,CLR,SKC,0.00,WeatherDisplay:10.37,2013-07-04 01:27:00,
2013-07-03 19:32:00,86.4,49.4,29.59,SW,229,3.5,3.5,28,0.00,CLR,SKC,0.00,WeatherDisplay:10.37,2013-07-04 01:32:00,
2013-07-03 19:37:00,86.2,47.3,29.59,WSW,239,8.1,8.1,26,0.00,CLR,SKC,0.00,WeatherDisplay:10.37,2013-07-04 01:37:00,
2013-07-03 19:44:00,85.9,49.0,29.60,WSW,238,2.3,2.3,28,0.00,CLR,SKC,0.00,WeatherDisplay:10.37,2013-07-04 01:44:00,
2013-07-03 19:49:00,85.8,49.9,29.60,SW,223,2.3,2.3,29,0.00,CLR,SKC,0.00,WeatherDisplay:10.37,2013-07-04 01:49:00,
2013-07-03 19:54:00,85.7,49.8,29.60,SW,220,5.0,5.0,29,0.00,CLR,SKC,0.00,WeatherDisplay:10.37,2013-07-04 01:54:00,
2013-07-03 20:00:00,85.5,49.6,29.59,SW,221,2.3,2.3,29,0.00,CLR,SKC,0.00,WeatherDisplay:10.37,2013-07-04 02:00:00,
2013-07-03 20:05:00,85.1,48.3,29.60,SW,226,2.0,2.0,28,0.00,CLR,SKC,0.00,WeatherDisplay:10.37,2013-07-04 02:05:00,
2013-07-03 20:10:00,84.8,49.0,29.60,SW,224,2.3,2.3,29,0.00,CLR,SKC,0.00,WeatherDisplay:10.37,2013-07-04 02:10:00,
2013-07-03 20:15:00,84.5,49.7,29.60,West,277,1.1,1.1,30,0.00,CLR,SKC,0.00,WeatherDisplay:10.37,2013-07-04 02:15:00,
2013-07-03 20:20:00,84.1,50.2,29.60,SW,225,1.0,1.0,31,0.00,CLR,SKC,0.00,WeatherDisplay:10.37,2013-07-04 02:20:00,
2013-07-03 20:26:00,83.5,49.7,29.60,SW,232,0.0,1.0,31,0.00,CLR,SKC,0.00,WeatherDisplay:10.37,2013-07-04 02:26:00,
2013-07-03 20:32:00,82.9,50.0,29.60,WSW,242,1.1,1.1,32,0.00,CLR,SKC,0.00,WeatherDisplay:10.37,2013-07-04 02:32:00,
2013-07-03 20:37:00,82.7,50.7,29.60,SSW,202,3.5,3.5,33,0.00,CLR,SKC,0.00,WeatherDisplay:10.37,2013-07-04 02:37:00,
2013-07-03 20:43:00,82.4,50.4,29.60,SSW,212,1.1,0.0,33,0.00,CLR,SKC,0.00,WeatherDisplay:10.37,2013-07-04 02:43:00,
2013-07-03 20:48:00,82.0,50.9,29.60,SSW,212,0.0,0.0,34,0.00,CLR,SKC,0.00,WeatherDisplay:10.37,2013-07-04 02:48:00,
2013-07-03 20:53:00,81.3,51.0,29.60,SW,236,0.0,0.0,35,0.00,CLR,SKC,0.00,WeatherDisplay:10.37,2013-07-04 02:53:00,
2013-07-03 20:58:00,80.9,49.9,29.60,East,97,1.1,1.1,34,0.00,CLR,SKC,0.00,WeatherDisplay:10.37,2013-07-04 02:58:00,
2013-07-03 21:03:00,80.7,51.3,29.60,SW,220,1.1,1.1,36,0.00,CLR,SKC,0.00,WeatherDisplay:10.37,2013-07-04 03:03:00,
2013-07-03 21:08:00,80.4,50.2,29.60,SSW,204,1.1,0.0,35,0.00,CLR,SKC,0.00,WeatherDisplay:10.37,2013-07-04 03:08:00,
2013-07-03 21:13:00,80.3,50.1,29.60,SW,217,1.1,1.1,35,0.00,CLR,SKC,0.00,WeatherDisplay:10.37,2013-07-04 03:13:00,
2013-07-03 21:18:00,80.2,50.8,29.60,SSW,202,3.5,3.5,36,0.00,CLR,SKC,0.00,WeatherDisplay:10.37,2013-07-04 03:18:00,
2013-07-03 21:23:00,80.3,50.9,29.60,SW,229,9.2,9.2,36,0.00,CLR,SKC,0.00,WeatherDisplay:10.37,2013-07-04 03:23:00,
2013-07-03 21:28:00,80.6,50.4,29.60,SW,229,5.8,5.8,35,0.00,CLR,SKC,0.00,WeatherDisplay:10.37,2013-07-04 03:28:00,
2013-07-03 21:33:00,81.0,50.0,29.60,WNW,290,2.3,2.3,34,0.00,CLR,SKC,0.00,WeatherDisplay:10.37,2013-07-04 03:33:00,
2013-07-03 21:39:00,81.1,50.1,29.61,SSW,201,5.8,5.8,34,0.00,CLR,SKC,0.00,WeatherDisplay:10.37,2013-07-04 03:39:00,
2013-07-03 21:44:00,81.3,49.4,29.61,SSW,203,2.3,2.3,33,0.00,CLR,SKC,0.00,WeatherDisplay:10.37,2013-07-04 03:44:00,
2013-07-03 21:49:00,81.2,50.9,29.61,SSW,207,0.0,0.0,35,0.00,CLR,SKC,0.00,WeatherDisplay:10.37,2013-07-04 03:49:00,
2013-07-03 21:54:00,80.6,51.9,29.61,SSW,207,1.0,1.0,37,0.00,CLR,SKC,0.00,WeatherDisplay:10.37,2013-07-04 03:54:00,
2013-07-03 21:59:00,78.7,51.0,29.62,SW,234,3.5,3.5,38,0.00,CLR,SKC,0.00,WeatherDisplay:10.37,2013-07-04 03:59:00,
2013-07-03 22:01:00,78.2,50.5,29.62,SW,220,0.0,3.0,38,0.00,CLR,SKC,0.00,WeatherDisplay:10.37,2013-07-04 04:01:00,
2013-07-03 22:02:00,78.0,50.3,29.62,SW,232,1.1,0.0,38,0.00,CLR,SKC,0.00,WeatherDisplay:10.37,2013-07-04 04:02:00,
2013-07-03 22:05:00,77.4,52.5,29.62,SSW,200,2.3,2.3,42,0.00,CLR,SKC,0.00,WeatherDisplay:10.37,2013-07-04 04:05:00,
2013-07-03 22:07:00,76.7,50.6,29.62,SSW,209,3.5,3.5,40,0.00,CLR,SKC,0.00,WeatherDisplay:10.37,2013-07-04 04:07:00,
2013-07-03 22:11:00,76.3,50.9,29.62,SSW,212,0.0,4.0,41,0.00,CLR,SKC,0.00,WeatherDisplay:10.37,2013-07-04 04:11:00,
2013-07-03 22:16:00,75.9,51.2,29.62,SW,230,0.0,1.0,42,0.00,CLR,SKC,0.00,WeatherDisplay:10.37,2013-07-04 04:16:00,
2013-07-03 22:21:00,75.2,51.2,29.63,WSW,239,0.0,0.0,43,0.00,CLR,SKC,0.00,WeatherDisplay:10.37,2013-07-04 04:21:00,
2013-07-03 22:26:00,74.5,51.8,29.63,SSW,207,3.5,3.5,45,0.00,CLR,SKC,0.00,WeatherDisplay:10.37,2013-07-04 04:26:00,
2013-07-03 22:31:00,74.6,51.2,29.63,WSW,242,1.1,1.1,44,0.00,CLR,SKC,0.00,WeatherDisplay:10.37,2013-07-04 04:31:00,
2013-07-03 22:36:00,74.8,52.6,29.63,NNW,330,2.3,2.3,46,0.00,CLR,SKC,0.00,WeatherDisplay:10.37,2013-07-04 04:36:00,
2013-07-03 22:41:00,74.3,52.8,29.64,NNW,330,0.0,0.0,47,0.00,CLR,SKC,0.00,WeatherDisplay:10.37,2013-07-04 04:41:00,
2013-07-03 22:46:00,73.5,52.0,29.64,NNW,329,1.1,0.0,47,0.00,CLR,SKC,0.00,WeatherDisplay:10.37,2013-07-04 04:46:00,
2013-07-03 22:51:00,73.0,52.7,29.64,NNW,329,0.0,0.0,49,0.00,CLR,SKC,0.00,WeatherDisplay:10.37,2013-07-04 04:51:00,
2013-07-03 22:56:00,72.0,53.9,29.64,NNW,329,1.1,0.0,53,0.00,CLR,SKC,0.00,WeatherDisplay:10.37,2013-07-04 04:56:00,
2013-07-03 23:01:00,71.1,52.0,29.64,NNW,329,1.1,0.0,51,0.00,CLR,SKC,0.00,WeatherDisplay:10.37,2013-07-04 05:01:00,
2013-07-03 23:07:00,70.1,53.7,29.64,NW,313,1.1,1.1,56,0.00,CLR,SKC,0.00,WeatherDisplay:10.37,2013-07-04 05:07:00,
2013-07-03 23:12:00,69.6,51.7,29.64,NW,313,1.1,1.1,53,0.00,CLR,SKC,0.00,WeatherDisplay:10.37,2013-07-04 05:12:00,
2013-07-03 23:17:00,69.5,52.1,29.64,NW,313,0.0,0.0,54,0.00,CLR,SKC,0.00,WeatherDisplay:10.37,2013-07-04 05:17:00,
2013-07-03 23:22:00,69.0,51.7,29.65,NW,313,0.0,0.0,54,0.00,CLR,SKC,0.00,WeatherDisplay:10.37,2013-07-04 05:22:00,
2013-07-03 23:27:00,68.6,53.2,29.65,NW,313,0.0,0.0,58,0.00,CLR,SKC,0.00,WeatherDisplay:10.37,2013-07-04 05:27:00,
2013-07-03 23:32:00,68.1,53.2,29.64,NW,313,0.0,0.0,59,0.00,CLR,SKC,0.00,WeatherDisplay:10.37,2013-07-04 05:32:00,
2013-07-03 23:37:00,67.9,53.0,29.65,NW,313,2.3,2.3,59,0.00,CLR,SKC,0.00,WeatherDisplay:10.37,2013-07-04 05:37:00,
2013-07-03 23:42:00,67.7,53.8,29.65,NW,313,1.1,0.0,61,0.00,CLR,SKC,0.00,WeatherDisplay:10.37,2013-07-04 05:42:00,
2013-07-03 23:47:00,67.2,52.8,29.65,NW,313,0.0,0.0,60,0.00,CLR,SKC,0.00,WeatherDisplay:10.37,2013-07-04 05:47:00,
2013-07-03 23:52:00,66.8,52.9,29.65,NW,313,0.0,0.0,61,0.00,CLR,SKC,0.00,WeatherDisplay:10.37,2013-07-04 05:52:00,
2013-07-03 23:57:00,66.3,52.0,29.65,NW,313,0.0,0.0,60,0.00,CLR,SKC,0.00,WeatherDisplay:10.37,2013-07-04 05:57:00,